Flag for Canada Weather past 2 weeks in Camrose, Alberta, Canada

Now
43 °F

Passing clouds.


Feels Like: 41 °F
Forecast: 44 / 77 °F
Wind: 3 mph from South

Location: Edmonton International

Current Time: Sep 16, 2014 at 2:35:41 AM

Latest Report: Sep 16, 2014 at 2:00 AM


Visibility: 15 mi

Pressure: 29.96 "Hg

Humidity: 87%

Dew point: 39 °F

Location of CamroseLocation

Historic Weather in Camrose — Graph

°F

Camrose temperature yesterday

Maximum temperature yesterday: 73 °F (at 4:00 PM)
Minimum temperature yesterday: 36 °F (at 6:47 AM)
Average temperature yesterday: 53 °F

Past Weeks' High & Low Weather Summary

 TemperatureHumidityPressure
High79 °F (Sep 6, 4:00 PM)100% (Sep 1, 9:00 PM)30.67 "Hg (Sep 1, 9:00 PM)
Low23 °F (Sep 11, 4:00 AM)27% (Sep 5, 4:00 PM)29.74 "Hg (Sep 2, 5:00 PM)
Average46 °F76%30.12 "Hg
* Reported Sep 1 1:00 AM — Sep 16 1:00 AM, Camrose, Weather by CustomWeather, © 2014

Note: Actual official high and low records may vary slightly from our data, if they occured in-between our weather recording intervals... More about our weather records

Advertising

Camrose weather history for previous 24 hours

 ConditionsComfort  
Time TempWeatherWind HumidityBarometerVisibility
1:00 AM
Sep 16
41 °FPassing clouds.6 mph87%29.97 "Hg15 mi
12:00 AM43 °FPassing clouds.6 mph81%29.97 "Hg15 mi
11:00 PM
Sep 15
46 °FPassing clouds.3 mph87%29.97 "Hg15 mi
10:00 PM43 °FPassing clouds.6 mph87%29.98 "Hg15 mi
9:00 PM46 °FPassing clouds.2 mph76%29.99 "Hg12 mi
8:00 PM61 °FPassing clouds.2 mph55%29.98 "Hg12 mi
7:00 PM70 °FPassing clouds.2 mph40%29.97 "Hg15 mi
6:00 PM72 °FSunny.3 mph38%29.97 "Hg15 mi
5:00 PM73 °FSunny.5 mph36%29.97 "Hg15 mi
4:00 PM73 °FSunny.9 mph36%29.98 "Hg15 mi
3:00 PM72 °FSunny.8 mph36%29.99 "Hg15 mi
2:00 PM70 °FSunny.2 mph38%30.00 "Hg15 mi
1:00 PM68 °FSunny.7 mph40%30.01 "Hg15 mi
12:00 PM64 °FPassing clouds.6 mph49%30.03 "Hg15 mi
11:00 AM59 °FPassing clouds.3 mph55%30.03 "Hg15 mi
10:00 AM55 °FPassing clouds.5 mph63%30.04 "Hg15 mi
9:00 AM48 °FPassing clouds.3 mph76%30.05 "Hg15 mi
8:00 AM37 °FPassing clouds.2 mph93%30.05 "Hg15 mi
7:00 AM36 °FPassing clouds.No wind87%30.04 "Hg15 mi
6:47 AM36 °FPassing clouds.No wind87%30.04 "Hg15 mi
6:00 AM41 °FPassing clouds.3 mph87%30.03 "Hg15 mi
5:00 AM41 °FPassing clouds.6 mph87%30.02 "Hg15 mi
4:00 AM45 °FPassing clouds.No wind87%30.03 "Hg15 mi
3:00 AM39 °FPassing clouds.5 mph87%30.04 "Hg15 mi
2:00 AM43 °FPassing clouds.8 mph87%30.04 "Hg15 mi
Weather by CustomWeather, © 2014

See weather overviewHow to use our weather pages